McAlester, OK

12:16 AM CST on December 12, 2017 (GMT -0600)
McAlester Regional

Weather History for KMLC - November, 2011

Change the Weather History Date:

Thursday, November 3, 2011

  Actual Average Record
Temperature  
Mean Temperature 44 °F -  
Max Temperature 55 °F 65 °F 84 °F (1978)
Min Temperature 34 °F 41 °F 18 °F (1991)
Degree Days  
Heating Degree Days 20    
Moisture  
Dew Point 29 °F    
Average Humidity 58    
Maximum Humidity 85    
Minimum Humidity 31    
Precipitation  
Precipitation 0.00 in - - ()
Sea Level Pressure  
Sea Level Pressure 30.26 in    
Wind  
Wind Speed 14 mph (NW)    
Max Wind Speed 20 mph    
Max Gust Speed 33 mph    
Visibility 10 miles    
Events      
Averages and records for this station are not official NWS values.
T = Trace of Precipitation, MM = Missing Value Source: NWS Daily Summary

Daily Weather History Graph

Daily Weather History Graph

Search for Another Location

Airport or City:

Trip Planner

Search our weather history database for the weather conditions in past years. The results will help you decide how hot, cold, wet, or windy it might be!

Date:

Astronomy

Nov. 03, 2011 Rise Set
Actual Time 7:45 AM CDT 6:27 PM CDT
Civil Twilight 7:19 AM CDT 6:53 PM CDT
Nautical Twilight 6:49 AM CDT 7:23 PM CDT
Astronomical Twilight 6:19 AM CDT 7:52 PM CDT
Moon 2:37 PM CDT (11/3) 1:14 AM CDT (11/3)
Length of Visible Light 11h 34m
Length of Day
10h 41m
First Quarter, 60% of the Moon is Illuminated
Nov 3
First Quarter
Nov 10
Full
Nov 18
Last Quarter
Nov 25
New
Dec 2
First Quarter

Hourly Weather History & Observations

Time (CDT) Temp. Windchill Dew Point Humidity Pressure Visibility Wind Dir Wind Speed Gust Speed Precip Events Conditions
12:53 AM 43.0 °F 34.5 °F 35.1 °F 74% 30.20 in 10.0 mi NW 19.6 mph 33.4 mph 0.00 in   Overcast
1:53 AM 43.0 °F 34.8 °F 35.1 °F 74% 30.20 in 10.0 mi NW 18.4 mph 29.9 mph N/A   Overcast
2:53 AM 43.0 °F 35.1 °F 34.0 °F 71% 30.22 in 10.0 mi NW 17.3 mph 28.8 mph N/A   Overcast
3:53 AM 43.0 °F 35.4 °F 34.0 °F 71% 30.23 in 10.0 mi NW 16.1 mph 27.6 mph N/A   Overcast
5:53 AM 39.9 °F 32.5 °F 32.0 °F 73% 30.27 in 10.0 mi NW 12.7 mph - N/A   Mostly Cloudy
6:53 AM 39.0 °F 33.4 °F 30.9 °F 73% 30.27 in 10.0 mi WNW 8.1 mph - N/A   Clear
7:53 AM 39.0 °F 31.8 °F 30.9 °F 73% 30.27 in 10.0 mi NW 11.5 mph - N/A   Partly Cloudy
8:53 AM 41.0 °F 32.8 °F 30.0 °F 65% 30.30 in 10.0 mi NW 16.1 mph 23.0 mph N/A   Clear
9:53 AM 43.0 °F 35.4 °F 28.0 °F 56% 30.31 in 10.0 mi NNW 16.1 mph 24.2 mph N/A   Clear
10:53 AM 46.9 °F - 28.9 °F 50% 30.32 in 10.0 mi NNW 16.1 mph 23.0 mph N/A   Partly Cloudy
11:53 AM 50.0 °F - 28.0 °F 43% 30.31 in 10.0 mi NNW 13.8 mph 21.9 mph N/A   Clear
12:53 PM 51.1 °F - 25.0 °F 36% 30.30 in 10.0 mi NNW 17.3 mph 26.5 mph N/A   Partly Cloudy
1:53 PM 53.1 °F - 25.0 °F 34% 30.27 in 10.0 mi NNW 15.0 mph 26.5 mph N/A   Mostly Cloudy
2:53 PM 54.0 °F - 25.0 °F 33% 30.26 in 10.0 mi NW 17.3 mph 24.2 mph N/A   Clear
3:53 PM 55.0 °F - 25.0 °F 31% 30.24 in 10.0 mi NNW 13.8 mph - N/A   Clear
4:53 PM 55.0 °F - 25.0 °F 31% 30.23 in 10.0 mi North 13.8 mph - N/A   Partly Cloudy
5:53 PM 53.1 °F - 25.0 °F 34% 30.24 in 10.0 mi NW 8.1 mph - N/A   Partly Cloudy
6:53 PM 48.0 °F - 26.1 °F 42% 30.26 in 10.0 mi West 3.5 mph - N/A   Clear
7:53 PM 41.0 °F - 30.9 °F 67% 30.27 in 10.0 mi Calm Calm - N/A   Partly Cloudy
8:53 PM 37.4 °F - 30.2 °F 75% 30.26 in 10.0 mi Calm Calm - N/A   Clear
9:53 PM 44.1 °F 40.1 °F 28.0 °F 53% 30.27 in 10.0 mi NW 6.9 mph - N/A   Clear
10:53 PM 34.0 °F - 30.0 °F 85% 30.28 in 10.0 mi Calm Calm - N/A   Partly Cloudy
11:53 PM 34.0 °F 31.0 °F 28.0 °F 79% 30.25 in 10.0 mi NNE 3.5 mph - N/A   Scattered Clouds